Time,TemperatureF,DewpointF,PressureIn,WindDirection,WindDirectionDegrees,WindSpeedMPH,WindSpeedGustMPH,Humidity,HourlyPrecipIn,Conditions,Clouds,dailyrainin,SolarRadiationWatts/m^2,SoftwareType,DateUTC
2013-04-27 00:00:00,50.0,30.0,30.12,WSW,256,11.0,-999.0,45,-99.99,,,-99.99,0.010000,,2013-04-27 06:00:00,
2013-04-27 00:52:00,50.0,30.0,30.12,WSW,256,11.0,-999.0,45,-99.99,,,-99.99,0.010000,,2013-04-27 06:52:00,
2013-04-27 02:00:00,48.0,29.0,30.12,SSW,204,4.0,-999.0,47,-99.99,,,-99.99,0.010000,,2013-04-27 08:00:00,
2013-04-27 02:52:00,48.0,29.0,30.12,SSW,204,4.0,-999.0,47,-99.99,,,-99.99,0.010000,,2013-04-27 08:52:00,
2013-04-27 03:00:00,47.0,29.0,30.10,SSW,206,4.0,-999.0,49,-99.99,,,-99.99,0.020000,,2013-04-27 09:00:00,
2013-04-27 03:53:00,47.0,29.0,30.10,SSW,206,4.0,-999.0,49,-99.99,,,-99.99,0.020000,,2013-04-27 09:53:00,
2013-04-27 04:00:00,48.0,28.0,30.09,SSW,201,6.0,-999.0,46,-99.99,,,-99.99,0.040000,,2013-04-27 10:00:00,
2013-04-27 04:52:00,48.0,28.0,30.09,SSW,201,6.0,-999.0,46,-99.99,,,-99.99,0.040000,,2013-04-27 10:52:00,
2013-04-27 05:00:00,55.0,19.0,30.05,SW,236,11.0,-999.0,24,-99.99,,,-99.99,0.020000,,2013-04-27 11:00:00,
2013-04-27 05:52:00,55.0,19.0,30.05,SW,236,11.0,-999.0,24,-99.99,,,-99.99,0.020000,,2013-04-27 11:52:00,
2013-04-27 06:00:00,56.0,21.0,30.08,West,268,20.0,-999.0,25,-99.99,,,-99.99,0.020000,,2013-04-27 12:00:00,
2013-04-27 06:52:00,56.0,21.0,30.08,West,268,20.0,-999.0,25,-99.99,,,-99.99,0.020000,,2013-04-27 12:52:00,
2013-04-27 07:00:00,52.0,23.0,30.08,WSW,254,10.0,-999.0,32,-99.99,,,-99.99,12.710000,,2013-04-27 13:00:00,
2013-04-27 07:52:00,52.0,23.0,30.08,WSW,254,10.0,-999.0,32,-99.99,,,-99.99,12.710000,,2013-04-27 13:52:00,
2013-04-27 08:00:00,60.0,25.0,30.09,WSW,252,13.0,-999.0,26,-99.99,,,-99.99,164.100006,,2013-04-27 14:00:00,
2013-04-27 08:52:00,60.0,25.0,30.09,WSW,252,13.0,-999.0,26,-99.99,,,-99.99,164.100006,,2013-04-27 14:52:00,
2013-04-27 09:00:00,62.0,22.0,30.07,WSW,253,13.0,-999.0,22,-99.99,,,-99.99,329.200012,,2013-04-27 15:00:00,
2013-04-27 09:53:00,62.0,22.0,30.07,WSW,253,13.0,-999.0,22,-99.99,,,-99.99,329.200012,,2013-04-27 15:53:00,
2013-04-27 10:00:00,64.0,24.0,30.06,WSW,254,18.0,-999.0,22,-99.99,,,-99.99,492.799988,,2013-04-27 16:00:00,
2013-04-27 10:53:00,64.0,24.0,30.06,WSW,254,18.0,-999.0,22,-99.99,,,-99.99,492.799988,,2013-04-27 16:53:00,
2013-04-27 11:00:00,65.0,23.0,30.04,West,269,20.0,-999.0,20,-99.99,,,-99.99,522.599976,,2013-04-27 17:00:00,
2013-04-27 11:53:00,65.0,23.0,30.04,West,269,20.0,-999.0,20,-99.99,,,-99.99,522.599976,,2013-04-27 17:53:00,
2013-04-27 12:00:00,65.0,22.0,30.03,West,275,21.0,-999.0,19,-99.99,,,-99.99,564.299988,,2013-04-27 18:00:00,
2013-04-27 12:52:00,65.0,22.0,30.03,West,275,21.0,-999.0,19,-99.99,,,-99.99,564.299988,,2013-04-27 18:52:00,
2013-04-27 13:00:00,63.0,25.0,30.01,West,274,22.0,-999.0,23,-99.99,,,-99.99,309.299988,,2013-04-27 19:00:00,
2013-04-27 13:53:00,63.0,25.0,30.01,West,274,22.0,-999.0,23,-99.99,,,-99.99,309.299988,,2013-04-27 19:53:00,
2013-04-27 14:00:00,63.0,24.0,30.02,West,261,12.0,-999.0,22,-99.99,,,-99.99,189.399994,,2013-04-27 20:00:00,
2013-04-27 14:52:00,63.0,24.0,30.02,West,261,12.0,-999.0,22,-99.99,,,-99.99,189.399994,,2013-04-27 20:52:00,
2013-04-27 15:00:00,66.0,21.0,29.99,WSW,251,8.0,-999.0,18,-99.99,,,-99.99,368.100006,,2013-04-27 21:00:00,
2013-04-27 15:53:00,66.0,21.0,29.99,WSW,251,8.0,-999.0,18,-99.99,,,-99.99,368.100006,,2013-04-27 21:53:00,
2013-04-27 16:00:00,69.0,21.0,29.95,WSW,242,10.0,-999.0,16,-99.99,,,-99.99,328.200012,,2013-04-27 22:00:00,
2013-04-27 16:52:00,69.0,21.0,29.95,WSW,242,10.0,-999.0,16,-99.99,,,-99.99,328.200012,,2013-04-27 22:52:00,
2013-04-27 17:00:00,69.0,20.0,29.93,West,273,18.0,-999.0,15,-99.99,,,-99.99,276.700012,,2013-04-27 23:00:00,
2013-04-27 17:52:00,69.0,20.0,29.93,West,273,18.0,-999.0,15,-99.99,,,-99.99,276.700012,,2013-04-27 23:52:00,
2013-04-27 18:00:00,67.0,19.0,29.93,West,271,25.0,-999.0,16,-99.99,,,-99.99,218.199997,,2013-04-28 00:00:00,
2013-04-27 18:52:00,67.0,19.0,29.93,West,271,25.0,-999.0,16,-99.99,,,-99.99,218.199997,,2013-04-28 00:52:00,
2013-04-27 19:00:00,67.0,22.0,29.92,West,271,21.0,-999.0,18,-99.99,,,-99.99,159.699997,,2013-04-28 01:00:00,
2013-04-27 19:52:00,67.0,22.0,29.92,West,271,21.0,-999.0,18,-99.99,,,-99.99,159.699997,,2013-04-28 01:52:00,
2013-04-27 20:00:00,62.0,22.0,29.93,West,272,19.0,-999.0,21,-99.99,,,-99.99,62.450001,,2013-04-28 02:00:00,
2013-04-27 20:52:00,62.0,22.0,29.93,West,272,19.0,-999.0,21,-99.99,,,-99.99,62.450001,,2013-04-28 02:52:00,
2013-04-27 21:00:00,55.0,25.0,29.94,WNW,282,13.0,-999.0,31,-99.99,,,-99.99,4.790000,,2013-04-28 03:00:00,
2013-04-27 21:53:00,55.0,25.0,29.94,WNW,282,13.0,-999.0,31,-99.99,,,-99.99,4.790000,,2013-04-28 03:53:00,